Tracking 21611 objects as of 21-Oct-2020
HD Live streaming from Space Station
objects crossing your sky now

DSAT

Track DSAT now!
10-day predictions
DSAT is classified as:


NORAD ID: 42794
Int'l Code: 2017-036AF
Perigee: 513.9 km
Apogee: 687.9 km
Inclination: 97.5 °
Period: 96.6 minutes
Semi major axis: 6971 km
RCS: Unknown
Launch date: June 23, 2017
Source: Italy (IT)
Launch site: SRIHARIKOTA (SRI)

Uplink (MHz):
Downlink (MHz): 437.505
Beacon (MHz): 437.505
Mode: 4800bps GMSK CW
Call sign: U1-DSAT-U1
Status: Inactive

aabbcc
Your satellite tracking list
Your tracking list is empty




NASA's NSSDC Master Catalog

Two Line Element Set (TLE):
1 42794U 17036AF  20294.77917568 +.00000203 +00000-0 +23161-4 0  9992
2 42794 097.4838 321.1666 0124770 307.0720 051.9143 14.91341445181371
Source of the keplerian elements: AMSAT